Location: Macksville High School
(37.9611°N, 99.9654°W)
Time: 19:53:58
(UTC+00:00)

Okean O Rocket - Pass Details

Date: 17 January 2021
Orbit: 622 x 645 km, 98.2° (Epoch: 26 February)

Event Time Altitude Azimuth Distance (km) Brightness Sun altitude
Rises 12:38:42 0° 21° (NNE) 2,928 5.1 -14.7°
Reaches altitude 10° 12:41:02 10° 29° (NNE) 2,012 4.4 -14.2°
Maximum altitude 12:45:07 38° 98° (E) 957 3.2 -13.5°
Drops below altitude 10° 12:49:09 10° 167° (SSE) 1,988 4.6 -12.7°
Sets 12:51:27 0° 176° (S) 2,887 5.3 -12.3°
